Theta_e
341 343 345 347 348 348 349 351 355 353 354 356 357 358 358 359 360 362 362 363 364 365 366 366 365 364 364 363 365 366 366 366 366 365 364 365 364 364 365 365 365 365 363 363 366 366 369 370 369 371 372 374 372 371 370 370 367 367 368 369 368 367 366
336 339 342 345 347 348 350 352 354 354 355 356 357 359 358 359 360 361 362 364 365 365 366 366 366 365 364 364 365 368 367 366 366 366 366 366 366 366 366 367 366 367 367 366 366 369 370 371 371 371 372 374 373 372 370 370 369 368 366 368 366 366 365
335 337 341 344 346 348 351 351 354 354 356 355 356 357 358 359 361 362 362 362 364 365 367 365 366 364 365 365 365 366 367 367 367 366 365 363 365 364 367 368 368 366 367 368 368 368 371 371 373 373 373 372 371 372 371 370 369 367 367 368 367 365 365
335 337 341 345 348 350 351 352 353 353 354 355 356 357 358 361 362 362 362 363 364 364 365 365 366 365 366 366 366 367 368 368 367 366 365 365 365 366 366 367 368 367 366 367 367 367 368 371 372 373 373 372 372 372 371 369 368 368 367 367 364 366 365
336 339 340 342 345 348 349 350 351 353 353 354 356 358 359 360 360 361 362 363 363 364 364 365 364 366 366 367 366 366 368 368 368 367 367 366 367 368 366 364 365 366 365 366 368 368 369 370 370 372 372 372 371 371 371 370 368 369 368 367 364 363 362
333 338 339 341 344 346 347 349 351 352 352 352 354 357 357 358 358 358 360 362 363 364 365 366 366 366 365 366 366 366 369 369 370 370 368 368 367 366 365 366 365 366 364 366 366 367 369 369 368 369 369 370 368 368 370 369 368 367 368 366 364 362 360
332 338 340 342 344 345 347 349 350 351 353 352 353 356 356 356 356 357 358 360 361 362 362 363 364 365 366 366 366 367 367 367 369 368 368 368 367 367 366 367 367 365 366 368 366 367 368 368 369 369 369 368 369 368 369 370 368 368 368 366 365 364 363
331 337 342 343 343 343 345 349 350 351 352 353 352 352 353 354 355 355 357 358 359 360 361 361 362 365 365 367 365 366 367 368 368 368 369 368 367 367 366 367 366 367 368 367 368 369 367 369 369 369 369 368 369 370 369 370 370 367 368 367 365 364 362
333 340 342 341 342 341 344 348 350 350 352 352 351 352 352 353 353 354 356 356 358 358 359 359 362 364 366 366 366 366 367 367 367 368 368 367 366 365 365 366 368 369 367 365 366 369 368 368 369 370 370 369 369 371 370 370 369 368 368 367 367 365 362
332 341 345 343 344 341 344 345 349 351 350 351 352 353 352 352 353 354 354 354 356 356 357 359 360 362 365 365 365 366 367 367 366 366 365 365 365 365 365 365 366 368 367 366 365 365 369 369 369 370 371 370 370 370 371 370 369 368 368 368 368 366 364
336 342 345 341 341 342 343 342 346 350 352 355 353 351 353 352 352 352 352 353 353 354 356 358 360 361 363 364 363 363 365 365 365 364 365 364 364 364 364 364 364 366 367 366 365 365 368 369 370 370 371 369 370 370 370 370 370 369 368 369 369 367 365
342 342 345 344 343 342 340 345 348 352 353 354 352 351 353 354 352 351 352 353 353 354 356 357 358 360 362 362 361 362 363 365 364 363 364 364 363 363 363 364 364 364 366 366 365 366 365 368 368 368 370 371 371 371 371 372 371 370 369 367 368 369 368
332 338 345 343 345 345 347 347 348 351 354 352 351 352 352 352 351 351 353 353 353 354 356 358 359 361 361 362 361 361 362 363 363 363 364 364 364 363 363 363 362 363 364 365 366 365 364 364 367 368 369 371 371 370 371 372 371 370 371 370 369 369 368
342 337 339 344 346 346 347 349 350 352 355 353 351 352 352 352 351 352 352 352 353 353 354 356 359 361 361 361 361 362 361 364 364 364 365 365 367 366 364 363 363 364 365 365 365 364 364 363 365 368 368 369 371 371 371 372 371 371 372 371 369 368 368
330 334 337 339 345 349 350 350 352 353 352 352 350 350 350 350 351 353 354 353 354 352 353 357 359 360 359 361 362 362 364 365 365 366 365 365 367 366 365 365 366 365 365 366 366 365 365 365 364 367 368 369 370 371 370 369 370 371 370 369 368 368 366
323 322 331 340 344 346 351 352 353 355 354 355 350 350 349 350 352 351 352 352 352 354 355 357 359 360 361 361 362 363 365 365 367 367 367 366 365 367 366 365 365 365 365 365 366 368 367 367 366 365 366 367 368 369 369 369 370 357 342 348 368 368 366
322 323 324 332 348 346 349 352 353 355 356 355 353 351 351 352 352 352 350 352 353 355 355 355 359 360 361 361 363 364 366 367 366 367 366 367 366 368 367 366 366 366 367 366 367 367 368 367 365 364 364 366 367 367 368 368 366 339 335 337 342 362 366
322 324 325 326 342 345 349 350 351 351 353 354 354 354 353 354 352 352 351 352 353 353 352 353 357 360 362 362 364 365 366 366 367 367 367 367 367 368 368 367 366 366 367 366 366 368 368 366 365 366 365 365 366 366 367 368 346 332 332 334 335 344 365
322 323 324 335 347 350 345 342 346 353 350 350 352 352 352 354 351 354 354 354 356 356 352 352 355 361 363 362 365 365 366 367 367 367 367 367 368 368 369 368 366 366 366 365 367 367 367 367 366 366 366 365 365 365 365 367 339 330 329 331 332 334 347
322 323 323 328 340 340 346 349 347 345 348 353 353 351 353 355 352 354 356 355 356 356 356 355 355 359 361 361 363 365 366 367 367 366 367 368 368 368 368 367 366 366 365 366 367 367 366 367 366 367 367 366 366 366 366 367 338 328 326 327 328 331 339
327 333 339 342 351 348 353 357 356 355 351 349 349 352 352 351 351 354 357 354 354 357 356 354 356 357 360 361 363 365 365 366 366 366 367 368 368 368 367 367 367 366 365 364 364 365 366 366 366 366 367 367 366 366 365 365 332 325 323 323 324 327 333
326 329 334 343 351 358 362 360 359 357 355 352 349 349 352 351 351 351 356 356 356 356 355 356 357 356 360 362 362 363 365 365 365 365 366 366 366 366 365 366 367 366 366 365 364 366 367 368 367 366 367 367 367 365 364 365 329 322 321 321 322 324 347
327 340 349 355 353 352 357 360 359 360 361 357 351 349 350 351 351 352 355 354 353 356 356 356 357 357 360 361 362 362 364 365 364 364 364 365 365 365 364 365 366 367 368 365 364 363 365 366 366 367 366 366 366 364 363 365 340 319 319 319 319 327 353
344 348 348 350 354 353 356 358 359 360 359 358 353 351 351 350 352 354 356 355 354 354 355 354 355 357 360 361 362 363 365 365 365 364 364 365 364 364 364 364 366 366 367 365 363 362 363 365 366 367 367 365 364 362 363 364 342 316 317 317 317 330 353
344 346 351 351 351 352 353 357 359 359 360 360 351 352 352 352 353 354 355 355 350 351 352 353 355 356 357 361 363 364 365 364 364 364 363 364 363 363 364 364 365 366 367 366 366 364 365 364 365 366 367 364 362 346 357 363 343 315 317 315 315 332 356
350 349 350 351 352 354 355 356 359 358 354 353 353 353 354 351 352 356 355 351 349 350 352 354 356 359 360 362 363 363 364 364 365 365 363 364 365 366 365 366 365 365 365 366 365 365 364 363 364 364 365 365 364 363 361 361 365 337 314 314 314 321 353
349 347 348 348 350 350 354 355 355 355 357 361 361 355 353 353 354 356 356 355 352 351 353 357 360 361 362 363 363 363 364 364 365 364 364 365 365 366 365 366 365 365 365 364 365 365 364 364 364 363 365 364 365 364 364 363 363 354 312 314 313 317 331
347 347 347 348 347 350 354 354 356 355 353 355 355 353 352 354 355 357 356 355 353 355 356 359 362 364 364 365 364 362 363 364 365 366 365 366 367 367 365 366 366 366 366 364 365 366 365 366 364 361 361 361 361 363 362 357 344 364 316 314 312 315 320
346 345 346 347 348 349 350 353 353 354 356 357 358 356 357 357 357 358 358 356 357 359 361 363 364 366 365 366 364 364 363 365 365 365 366 366 366 366 366 367 366 366 367 367 366 365 364 363 362 361 359 360 360 362 364 366 362 337 334 314 312 312 316
344 344 345 346 346 348 349 350 352 353 355 358 364 361 357 359 358 358 358 362 367 366 366 366 365 366 364 364 364 363 363 364 365 368 367 366 366 366 367 366 366 366 366 366 364 361 361 361 360 360 359 358 358 361 361 366 365 342 326 325 311 312 313
342 343 344 345 345 349 351 350 350 351 353 355 359 363 365 362 362 363 361 363 365 363 361 362 362 363 362 363 363 363 364 364 365 365 364 364 364 365 365 366 367 364 364 364 362 360 359 359 360 358 359 359 358 360 362 363 363 364 340 320 314 312 312
341 343 344 346 347 349 351 352 352 352 353 354 357 358 359 360 360 357 357 361 365 368 366 363 361 360 360 361 361 361 362 362 362 365 367 367 366 367 366 366 364 362 362 361 360 361 361 360 358 358 359 358 359 359 360 362 363 364 362 327 318 316 314
342 344 345 345 346 347 350 351 350 349 349 350 353 355 356 357 356 357 358 359 361 365 367 367 364 361 361 361 361 363 363 362 360 361 363 367 364 362 362 362 362 362 360 360 360 361 360 360 360 359 357 357 358 359 360 361 361 362 364 343 335 332 329
343 344 346 347 347 347 349 349 348 347 347 347 349 350 351 352 354 356 358 359 361 364 365 364 365 364 365 364 364 363 363 363 358 360 360 359 360 358 358 360 361 359 359 360 360 360 359 359 358 358 358 358 358 358 359 359 361 361 361 355 345 341 341
343 343 345 345 346 346 346 346 345 345 345 344 347 348 349 350 351 353 355 357 360 361 361 359 358 362 363 363 363 362 364 363 361 358 358 359 362 361 363 364 366 367 367 369 370 367 365 365 363 362 364 362 360 360 359 359 358 361 339 362 330 338 341
342 342 342 343 344 345 344 344 344 343 343 344 345 346 347 347 348 350 352 356 358 358 356 356 357 358 358 359 359 360 359 360 360 361 360 360 360 361 360 340 326 346 360 361 340 323 314 319 347 353 350 351 356 362 360 360 362 332 321 318 316 317 320
340 340 342 342 342 342 342 342 343 343 343 344 344 345 345 345 346 347 349 352 353 353 353 353 351 351 351 352 352 351 353 352 354 355 355 354 352 352 349 348 349 311 305 317 318 313 305 303 303 303 307 327 336 336 323 318 314 311 312 310 308 310 313
341 341 342 342 341 341 341 341 342 341 341 342 343 344 345 345 346 347 347 349 350 351 351 351 350 349 348 348 348 349 349 348 346 346 346 346 346 347 344 342 345 351 319 307 318 313 304 302 301 300 300 301 306 312 326 317 309 305 304 306 308 308 309
Wind_Speed
17 17 18 17 17 19 20 20 21 21 21 20 20 22 22 20 19 18 18 20 21 20 20 20 19 18 19 17 17 15 15 14 13 13 13 13 12 12 12 11 12 11 11 11 10 11 10 10 11 11 10 10 11 10 10 9 9 9 9 9 8 8 8
15 16 17 18 19 20 21 21 21 19 20 20 20 22 21 22 20 20 19 20 22 22 21 21 20 19 18 18 16 17 16 16 15 12 12 11 11 11 12 12 11 11 11 11 10 9 10 10 11 11 11 11 11 11 11 10 10 10 9 9 9 8 8
16 16 17 18 19 19 21 20 20 20 21 20 20 21 22 22 22 22 20 20 21 21 20 21 21 20 18 18 17 18 18 16 16 16 16 14 15 15 12 12 12 11 12 11 10 10 10 10 11 11 11 11 11 11 11 11 11 10 10 9 9 9 10
15 17 18 20 20 20 20 21 22 21 20 21 22 23 23 23 22 21 20 21 22 21 22 21 21 21 19 19 18 17 18 18 17 16 16 15 14 13 12 12 11 12 11 12 12 11 9 10 12 11 12 11 11 11 12 12 11 11 11 10 9 9 9
16 17 16 16 18 17 18 19 21 22 23 24 24 23 23 23 22 20 20 20 22 23 24 23 20 20 17 18 15 15 17 19 18 16 15 15 14 13 14 15 13 14 13 12 12 11 11 11 12 11 12 12 12 11 12 12 11 11 10 11 10 10 9
16 16 15 16 17 18 19 22 24 24 23 23 23 23 22 23 21 23 23 22 22 22 20 20 20 19 20 20 17 16 16 17 17 17 16 15 15 14 15 15 15 14 14 14 12 12 13 12 12 12 13 12 12 13 12 12 12 12 11 11 10 10 10
15 16 16 16 17 18 20 21 21 22 22 21 21 19 18 19 22 22 21 22 23 22 23 23 22 21 19 18 18 19 19 19 18 19 17 17 16 16 15 14 14 14 13 12 12 12 13 13 13 13 13 13 12 13 12 12 12 11 11 11 11 10 10
14 14 16 17 18 18 18 19 19 20 19 17 18 20 22 21 20 21 22 21 22 22 21 23 22 20 19 18 18 20 20 20 18 18 16 17 17 17 16 15 14 14 13 13 13 13 13 14 13 13 13 13 13 13 13 13 13 12 11 12 12 12 10
11 10 11 13 14 14 13 14 15 16 18 19 21 21 21 20 20 21 23 22 21 22 23 23 22 21 19 18 18 21 19 19 18 17 19 19 17 18 18 16 15 14 14 14 13 13 13 13 13 13 14 13 13 13 13 13 13 12 12 12 13 13 12
7 7 7 7 8 9 10 11 12 13 17 18 18 18 20 20 20 20 21 22 21 24 24 23 21 20 19 19 20 21 19 18 18 19 19 19 17 19 19 17 15 15 15 15 14 13 13 14 14 13 13 13 13 13 13 14 13 13 13 13 14 13 13
5 7 7 9 10 10 11 12 14 15 15 15 17 19 18 19 20 20 21 21 22 22 23 21 20 20 20 21 22 21 20 20 20 20 20 20 18 20 19 18 17 15 16 16 16 15 13 13 14 13 14 13 14 14 14 14 14 14 14 13 13 14 14
4 5 7 9 10 11 14 13 12 13 15 15 17 18 17 17 19 20 20 21 21 20 20 21 20 20 20 20 21 20 22 20 20 21 21 21 20 20 19 18 18 17 16 17 17 16 16 15 14 14 15 14 15 15 15 14 14 15 14 14 14 13 13
5 5 6 7 8 8 8 10 15 15 15 15 17 18 17 18 18 18 18 20 21 19 19 19 19 19 20 20 21 20 21 21 21 20 20 20 19 18 18 19 19 19 18 16 17 17 17 17 16 14 15 15 15 15 15 14 15 14 15 14 14 14 14
6 6 6 6 8 10 11 12 12 13 15 16 16 16 16 17 18 17 18 19 19 19 19 17 19 19 19 19 19 19 21 20 20 20 19 18 17 18 18 18 18 18 17 16 17 17 18 17 17 15 14 15 15 15 14 14 14 15 15 14 14 14 14
5 7 7 8 9 9 10 11 12 13 14 15 16 18 19 17 17 16 17 17 18 19 20 18 18 19 20 19 19 19 19 17 17 17 17 18 17 18 18 18 17 17 16 16 16 14 16 17 16 16 15 15 15 15 15 14 14 13 14 15 16 14 14
4 2 4 8 9 10 10 11 11 12 12 13 16 18 18 17 17 19 19 18 18 18 18 16 18 19 19 19 19 18 17 17 16 16 17 18 18 18 18 18 17 17 17 17 16 15 14 15 16 16 16 16 16 15 14 14 12 14 18 16 14 15 13
11 9 8 4 8 8 8 9 9 10 12 13 16 17 17 16 17 17 19 18 18 18 18 18 17 18 18 19 18 17 17 16 17 16 18 18 17 17 17 18 16 16 16 16 16 16 14 14 16 16 16 16 16 16 14 13 12 17 19 19 18 14 13
16 15 14 12 2 4 6 8 9 11 13 15 16 17 16 16 16 17 18 18 18 18 18 18 17 18 18 17 15 16 17 16 17 16 17 17 18 17 17 17 17 16 16 16 17 15 15 15 16 16 16 14 16 16 15 14 15 19 20 20 20 18 14
16 17 15 8 5 5 6 8 9 11 13 13 13 15 18 17 16 16 17 17 15 13 17 19 18 16 15 15 15 16 16 15 16 17 16 17 17 16 15 16 17 17 16 17 16 15 16 16 16 16 16 16 16 16 16 15 16 20 21 21 22 21 18
17 17 16 12 8 8 6 5 6 8 10 12 13 14 14 16 18 17 15 15 14 16 17 17 17 16 15 15 15 15 15 15 16 17 17 16 16 15 16 16 17 17 16 15 15 16 16 17 17 16 16 16 16 15 15 16 16 22 22 22 23 22 20
14 11 10 9 8 8 6 5 5 7 8 9 10 11 13 16 17 13 13 16 17 16 17 17 17 15 15 16 16 15 15 16 16 16 15 15 15 15 16 17 16 17 16 15 16 16 16 16 17 16 16 16 16 15 15 15 16 21 23 22 23 23 20
14 13 12 8 7 5 4 6 7 7 6 6 8 10 12 14 14 14 14 16 16 15 16 16 15 15 14 16 17 17 17 17 16 15 14 14 15 15 17 17 16 16 15 14 14 14 14 14 15 16 16 16 16 16 16 15 17 20 22 23 23 23 16
13 9 6 4 5 6 5 7 8 8 7 7 8 10 11 11 13 14 14 16 16 16 15 16 16 17 16 17 17 18 17 17 16 15 15 15 16 17 17 17 16 15 13 15 15 15 15 15 16 14 15 17 17 17 16 16 15 20 23 23 25 19 15
5 4 5 5 4 6 7 8 8 8 8 8 9 9 8 10 12 13 13 15 15 16 16 17 18 17 16 16 16 15 14 14 15 15 16 15 17 17 17 16 15 15 14 15 15 16 16 14 13 14 15 17 18 17 17 16 14 22 22 24 24 22 17
6 3 2 3 5 6 6 6 8 9 8 8 9 9 9 10 12 13 13 14 16 16 16 17 17 17 17 14 13 13 14 14 15 16 16 16 17 17 16 16 14 13 12 13 14 14 13 13 13 13 14 16 18 15 18 17 14 20 21 23 25 21 15
2 1 2 2 3 4 5 6 7 6 8 8 9 8 9 11 11 13 12 13 14 15 16 16 15 13 13 12 13 13 14 14 15 16 17 17 16 14 14 12 12 13 14 13 12 12 13 13 13 15 14 14 15 15 18 19 15 16 23 24 24 26 17
1 2 3 4 3 4 4 3 3 2 1 1 1 5 8 10 11 11 11 11 13 14 13 11 11 12 12 12 13 14 14 13 14 15 15 14 13 13 13 12 13 12 12 13 12 12 12 14 13 14 14 14 14 14 17 15 17 13 24 24 26 27 24
0 1 2 3 3 4 3 1 1 2 3 2 4 5 7 8 9 9 10 11 12 11 9 9 10 10 12 12 13 13 13 13 12 12 12 12 11 11 11 11 11 11 12 12 12 13 13 13 14 15 15 15 16 16 17 15 16 14 20 24 26 28 32
1 1 2 2 1 2 3 1 2 4 4 3 3 4 5 8 9 9 9 9 9 8 8 7 8 9 10 10 11 11 12 11 12 10 10 11 12 12 11 11 11 12 11 12 12 13 15 16 15 14 15 14 16 15 15 14 12 16 15 24 26 28 28
1 2 2 1 1 1 1 2 3 4 5 6 6 5 6 7 8 8 9 8 6 6 6 6 7 8 9 9 10 10 10 10 10 9 9 10 10 11 11 11 11 11 11 12 12 13 14 13 13 13 15 16 16 15 15 12 13 13 19 20 27 25 27
1 0 1 1 2 2 1 3 4 6 8 7 8 8 7 7 9 10 10 7 5 6 6 6 6 7 7 8 9 9 9 10 9 10 10 11 12 11 11 12 12 11 12 12 13 12 13 13 13 13 14 15 16 15 14 14 15 15 15 23 24 27 29
2 2 2 3 4 3 3 4 6 9 11 11 10 9 9 9 9 10 7 5 4 5 5 6 7 7 7 7 8 9 9 10 10 10 10 10 9 10 10 10 11 12 12 13 13 12 13 13 13 14 14 14 15 15 14 14 15 16 12 14 21 23 29
3 4 4 5 5 4 3 4 7 9 10 12 10 9 9 10 9 8 7 6 4 4 5 5 6 6 7 7 7 7 8 8 8 8 8 9 9 9 9 9 10 10 10 11 12 12 12 12 12 13 14 15 15 14 13 14 16 16 13 8 11 12 16
5 4 5 5 5 4 4 5 7 9 10 11 10 10 10 9 9 8 7 6 6 5 5 6 6 7 7 7 6 6 6 6 4 5 7 8 8 8 9 9 9 8 8 9 10 11 12 11 12 12 13 13 12 12 13 15 15 16 17 10 12 11 12
5 6 6 7 6 6 6 6 7 9 10 10 9 10 10 10 9 8 7 6 6 6 7 7 8 8 8 8 7 6 4 6 6 6 5 5 5 3 6 5 3 2 1 1 1 2 3 7 8 9 11 11 12 13 15 15 16 17 13 13 15 17 14
6 7 8 8 8 9 9 8 8 9 10 9 9 9 10 10 9 8 7 7 7 7 8 9 8 8 8 7 7 7 7 6 5 4 3 4 3 2 2 4 2 2 3 3 7 10 7 3 4 7 7 9 11 11 14 15 16 16 16 13 18 23 26
7 8 9 10 11 11 11 10 10 10 11 10 9 10 10 10 9 9 8 8 7 7 8 8 9 8 8 7 7 6 7 6 6 5 5 4 4 3 3 3 2 6 6 4 5 7 9 4 7 9 7 6 9 12 15 19 23 24 23 19 14 20 27
9 9 10 11 12 13 12 11 11 12 12 11 10 11 10 11 11 10 9 8 8 9 9 9 8 9 9 9 9 8 8 7 7 7 6 5 4 4 3 3 5 5 1 1 0 6 7 8 10 10 10 7 7 9 12 15 17 18 19 20 21 22 26
Wind_Direction
200 200 201 198 199 199 198 195 191 189 189 189 189 189 189 190 190 185 186 185 187 188 189 190 191 193 197 200 203 205 204 203 205 206 207 209 210 209 207 207 206 206 207 210 210 211 211 207 207 207 204 202 202 199 199 199 208 219 223 222 220 223 222
199 201 200 199 200 202 201 196 191 191 190 189 188 189 190 190 189 189 188 185 186 187 187 189 191 193 196 199 199 203 204 205 206 207 208 210 210 210 209 207 206 205 207 211 211 210 208 203 203 202 202 200 201 199 198 199 204 212 219 218 219 220 219
198 200 201 199 201 202 200 198 195 193 191 190 189 188 190 189 188 189 187 186 186 187 186 188 192 194 194 197 199 201 204 203 203 205 207 208 208 209 208 208 208 209 208 208 210 209 204 203 200 202 202 202 202 199 200 200 200 203 214 218 219 218 219
198 200 200 200 202 201 197 196 196 196 194 193 191 191 190 189 188 188 188 186 185 185 188 189 189 191 191 193 196 197 200 202 204 206 209 210 210 208 208 208 211 212 210 209 208 208 206 202 200 201 201 204 203 201 201 202 200 201 205 212 220 219 221
204 203 202 201 203 199 198 199 199 198 197 195 193 191 190 188 186 187 190 189 188 189 191 188 189 190 191 192 195 198 199 200 202 206 208 209 209 206 208 212 208 211 212 211 208 206 206 203 203 201 201 203 203 202 202 201 202 198 201 204 215 219 218
202 202 202 202 202 200 201 201 200 198 198 197 195 191 190 189 188 190 190 189 191 192 190 189 191 190 192 194 194 196 196 199 201 203 205 206 205 207 209 210 211 210 211 210 207 207 204 205 205 204 204 203 206 205 203 202 202 199 200 200 208 214 217
198 197 199 202 202 203 203 203 202 200 200 200 197 193 192 191 193 193 190 191 192 190 189 190 192 192 194 192 196 195 196 198 199 203 204 205 204 208 210 210 211 212 212 207 209 207 206 206 205 205 205 207 206 207 205 204 204 201 200 200 201 206 210
206 196 196 198 203 205 204 202 201 201 198 198 198 196 195 193 193 193 193 194 193 192 192 192 192 193 192 193 195 197 198 199 199 201 202 204 205 208 209 210 208 210 208 207 207 207 207 206 205 204 205 207 206 206 206 204 205 201 199 198 198 199 200
209 207 208 208 209 209 205 199 200 198 198 198 199 199 197 196 194 194 196 196 194 194 194 193 192 191 190 191 193 197 198 197 198 198 201 203 205 208 208 208 208 206 207 208 208 206 210 208 207 203 203 206 204 203 205 204 204 204 201 200 198 197 197
212 184 193 202 206 206 204 200 195 197 200 200 199 198 199 198 198 196 196 196 195 198 197 195 193 191 190 191 194 196 195 197 200 200 200 204 206 208 209 208 207 205 208 209 211 208 206 209 208 204 201 203 203 203 203 202 204 205 204 202 199 199 197
184 187 186 193 193 193 192 196 195 199 199 197 197 198 197 197 199 199 197 195 196 198 197 195 193 192 191 192 194 194 195 197 199 201 204 206 206 208 209 209 209 206 208 209 212 211 206 206 207 205 201 202 202 202 203 203 202 203 206 204 203 202 199
152 181 197 201 198 192 198 199 196 195 199 196 196 198 197 197 199 201 199 199 198 196 193 194 193 193 193 195 196 196 196 197 199 202 204 206 209 209 209 209 210 209 207 209 212 210 209 206 204 204 203 203 202 202 204 203 203 203 205 207 203 202 202
209 201 198 200 197 199 197 199 202 201 196 196 197 197 198 197 199 201 200 200 199 197 193 191 191 192 193 195 197 197 198 197 199 201 204 205 208 208 209 211 211 210 210 207 209 209 210 208 207 203 203 203 203 203 203 204 204 204 204 207 207 204 202
186 192 193 184 188 195 200 205 205 203 201 201 199 199 201 201 200 200 200 200 198 197 194 192 191 191 192 193 196 197 198 198 198 200 202 203 203 206 208 210 211 211 211 209 209 211 210 209 206 204 202 203 204 204 204 204 204 204 204 206 206 204 202
217 191 185 187 190 196 204 208 212 213 208 204 203 203 204 204 203 200 199 199 197 198 198 192 189 190 191 191 194 196 195 194 197 200 200 201 201 204 207 209 210 210 210 210 212 211 212 210 208 204 202 202 203 203 204 206 205 204 203 207 207 203 202
299 318 172 186 190 197 204 212 212 210 208 204 204 204 204 203 202 200 199 198 198 198 197 191 191 190 190 192 194 193 190 191 193 195 197 199 200 201 204 207 208 209 209 210 211 211 211 211 210 208 204 202 202 204 204 206 206 198 194 195 199 200 202
284 284 300 261 179 195 202 210 214 211 206 206 204 204 203 203 202 201 201 198 197 196 195 194 191 191 192 195 193 187 186 188 193 193 195 198 198 200 201 204 206 208 208 210 210 211 209 209 210 211 210 207 205 205 206 206 206 186 186 188 191 198 202
285 290 293 295 204 180 199 210 210 210 213 212 208 203 202 202 201 199 202 198 197 194 191 195 194 194 195 194 187 185 186 190 190 192 195 195 199 198 199 201 204 206 206 207 208 209 210 210 211 213 214 212 211 210 210 210 197 180 185 185 186 192 201
274 277 279 271 244 231 224 225 216 213 221 224 216 209 206 199 198 203 201 198 194 188 191 196 198 198 199 195 189 189 191 192 192 195 194 196 195 196 197 200 203 205 206 207 207 207 210 211 210 212 213 214 214 215 213 217 186 182 183 185 187 190 199
266 268 269 267 259 255 244 225 230 230 225 225 226 221 211 203 203 202 197 191 185 190 192 195 198 197 198 195 195 194 194 196 196 197 198 195 193 194 198 201 205 206 208 209 208 210 212 213 213 214 214 214 216 217 218 222 184 183 182 185 187 190 196
268 263 259 263 260 262 255 246 242 238 237 236 229 221 213 208 208 198 188 187 186 189 189 194 195 196 192 192 193 195 197 199 201 201 197 195 195 196 202 206 208 207 210 210 211 212 213 213 214 216 216 214 215 218 221 226 186 181 182 184 186 190 195
266 266 263 259 262 259 271 273 269 265 258 249 230 221 214 211 201 194 191 186 185 185 188 187 191 194 192 191 192 193 195 197 199 199 197 197 198 201 206 209 209 210 208 213 215 216 216 216 218 218 216 215 215 218 225 228 187 181 181 184 186 184 195
266 269 275 278 275 274 281 283 279 277 273 255 242 228 216 206 197 192 186 186 191 187 187 187 190 195 196 196 195 195 195 195 195 195 197 197 199 204 208 210 211 210 206 211 215 216 216 217 217 218 217 217 219 222 227 232 195 181 182 183 182 179 198
231 248 264 281 293 283 273 267 269 265 258 256 245 235 219 203 196 190 188 187 186 186 187 191 197 197 198 200 198 194 192 192 193 194 196 199 203 206 209 210 210 210 205 211 213 217 220 218 220 219 218 219 221 219 224 231 196 180 183 182 179 184 195
218 227 272 289 293 292 290 291 286 277 258 244 239 225 216 205 194 186 187 186 190 191 193 197 200 199 200 199 194 191 190 193 195 197 199 202 207 209 211 211 212 212 209 214 217 222 223 222 224 223 222 223 225 217 222 232 210 178 183 184 180 187 198
177 230 252 285 273 289 293 291 278 247 238 228 224 217 205 201 191 188 190 191 191 194 199 201 198 196 196 194 192 193 195 196 197 199 201 204 207 208 211 211 212 212 212 216 218 222 223 223 226 228 227 226 224 223 223 228 226 178 185 181 183 189 196
37 335 309 307 321 314 286 277 287 310 346 38 208 196 195 195 188 187 192 191 195 201 201 195 191 189 189 190 193 195 197 199 201 203 206 207 207 208 210 209 213 214 215 218 219 222 223 225 228 229 231 231 231 233 233 231 231 186 182 183 184 189 197
156 254 286 302 303 283 273 268 127 173 141 153 190 198 191 192 189 181 180 189 197 199 194 187 185 183 186 188 194 198 199 201 202 204 208 207 204 206 210 212 213 213 216 219 220 221 222 225 234 240 243 243 242 240 239 233 223 228 179 186 188 191 200
235 295 307 291 272 271 257 174 96 78 67 81 106 154 163 172 173 168 168 182 189 189 184 176 177 179 184 188 194 198 199 200 200 198 200 201 201 204 207 206 208 214 218 221 227 231 236 236 237 239 245 244 245 244 237 232 222 210 182 190 190 196 200
298 260 245 317 3 40 191 139 107 87 76 64 66 103 143 159 155 155 154 139 115 131 137 152 164 172 182 187 191 190 193 196 196 196 197 201 205 208 211 212 213 215 222 228 232 238 237 239 239 240 242 245 247 243 243 234 233 206 187 187 193 193 199
250 154 87 54 65 64 101 117 118 110 94 80 69 64 85 115 123 114 105 99 123 140 156 160 163 169 179 184 187 187 192 194 195 198 204 205 206 208 211 214 215 220 229 229 233 237 241 243 241 241 244 247 249 251 245 239 235 239 197 188 185 194 199
184 138 122 122 108 89 93 114 114 105 94 88 77 76 75 82 93 96 94 95 99 122 140 158 165 174 180 185 189 192 197 198 199 202 202 204 206 214 223 226 228 230 231 234 234 236 238 245 246 246 247 249 251 252 252 245 247 243 230 179 187 195 202
150 145 130 108 100 108 100 101 96 93 92 87 79 78 81 89 93 99 110 113 125 131 136 141 150 160 170 175 181 180 191 189 196 194 193 204 215 221 224 226 233 233 234 237 240 241 244 242 242 244 249 253 255 257 256 253 252 247 239 152 188 199 205
139 127 116 113 98 75 85 86 89 85 85 81 75 71 71 76 83 95 100 102 112 119 125 126 139 146 143 146 151 154 160 166 151 178 192 197 208 216 218 219 219 230 233 234 237 243 245 244 247 248 250 252 250 250 250 253 249 245 243 206 188 193 194
134 125 110 100 90 82 79 81 83 83 81 85 83 83 80 75 77 83 91 97 100 99 100 87 84 97 107 110 112 100 112 148 158 185 208 197 195 182 44 28 24 11 333 292 339 311 292 271 269 265 265 266 266 267 265 260 258 252 239 229 182 185 187
119 114 111 106 102 99 98 91 90 88 85 84 82 79 83 85 88 90 96 110 116 118 119 126 127 124 120 120 119 126 121 113 95 91 100 122 103 114 74 60 52 11 315 290 25 42 43 43 290 300 314 303 288 281 272 267 266 294 304 250 199 193 196
118 118 113 111 109 103 99 97 94 93 89 86 86 86 87 87 87 87 87 89 96 115 122 126 124 118 114 112 111 95 118 113 109 110 109 104 109 122 145 172 86 51 41 33 317 322 334 300 257 264 261 258 284 285 283 285 289 289 283 292 268 219 209
116 114 107 106 107 108 108 102 98 96 94 93 88 86 85 86 86 86 87 86 93 100 103 105 107 104 102 102 106 91 93 93 99 104 108 109 113 120 126 126 127 116 24 271 355 299 280 288 293 301 313 303 278 290 306 303 300 298 298 286 271 243 227